www.pogodaiklimat.ru

Погода и климат >> Архив погоды >> Россия >> Новгородская область >> Крестцы


ПОГОДА в Крестцах

  • Прогноз погоды в Крестцах
  • Монитор погоды в Крестцах
  • Климат города

АРХИВ ПОГОДЫ в Крестцах

Время (UTC), дата Ветер
(напр.,м/с)
 
Видим.   Явления Облачность Т
(С)
Тd
(С)
f
(%)
Тe
(С)
Тes
(С)
Комфортность P
(гПа)
Po
(гПа)
Тmin
(С)
Tmax
(С)
R
(мм)
R24
(мм)
S
(см)
06 13.09 ЮЗ 4 20 км 8/8 600 м
[Cb calv]
+12.8 +9.7 81 +11 +11 1010.8 1003.2 +11.1 1
09 13.09 З 6-12
{13}
н/о н/о +15.8 +8.6 62 +14 +14 1012.5 1005.0
12 13.09 ЮЗ 4
{14}
н/о н/о +17.4 +8.8 57 +17 +17 1014.0 1006.5
15 13.09 З 4
{12}
н/о н/о +16.7 +8.1 57 +16 +16 1014.8 1007.3
18 13.09 ЮЗ 2 20 км ясно +11.5 +8.8 83 +10 +10 1016.1 1008.4 +18.3
21 13.09 штиль 0 н/о н/о +7.5 +7.1 97 +6 +6 1017.1 1009.3
00 14.09 штиль 0 н/о н/о +5.2 +5.2 100 +4 +4 1017.9 1010.0
03 14.09 штиль 0 н/о н/о +4.0 +4.0 100 +3 +3 1018.4 1010.5 +3.8
06 14.09 Ю 1 20 км 9/0
[Ac trans Ci sp]
+9.9 +8.4 90 +9 +11 1019.1 1011.3 +3.6
09 14.09 Ю 1 н/о н/о +15.8 +10.2 69 +17 +17 1018.8 1011.2
12 14.09 ЮЗ 3 н/о н/о +18.3 +7.8 50 +19 +19 1017.9 1010.4
15 14.09 З 2 н/о н/о +16.9 +8.6 58 +17 +17 1017.6 1010.0
18 14.09 штиль 0 20 км 4/0
[Ci sp]
+8.6 +8.3 98 +8 +8 1018.7 1010.9 +19.6
21 14.09 штиль 0 н/о н/о +6.3 +6.3 100 +5 +5 1019.4 1011.5
00 15.09 В 1 н/о н/о +5.3 +5.3 100 +4 +4 1020.0 1012.1
03 15.09 ЮВ 1 н/о н/о +4.2 +4.2 100 +3 +3 1020.3 1012.4 +4.1
06 15.09 ЮВ 1 20 км 3/0
[Ci fib]
+10.7 +8.3 85 +10 +13 1020.2 1012.5 +3.9
09 15.09 Ю 1 н/о н/о +17.8 +10.2 61 +19 +19 1019.8 1012.3
12 15.09 ЮЗ 2 н/о н/о +18.9 +8.1 49 +20 +20 1017.9 1010.4
15 15.09 ЮВ 1 н/о н/о +16.2 +9.4 64 +17 +17 1016.5 1008.9
18 15.09 В 1 20 км 9/0
[Ac und]
+11.4 +11.0 97 +11 +11 1016.0 1008.3 +19.9
21 15.09 штиль 0 н/о н/о +10.6 +10.1 97 +10 +10 1014.5 1006.8
00 16.09 штиль 0 н/о н/о +10.8 +9.7 93 +10 +10 1013.0 1005.3
03 16.09 штиль 0 н/о н/о +9.2 +8.7 97 +8 +8 1011.8 1004.1 +9.1
06 16.09 ЮЗ 2 20 км 9/6 480 м
[Cb calv Ac und]
+11.0 +9.8 92 +10 +10 1011.8 1004.1 +8.2
09 16.09 З 2 н/о н/о +13.5 +10.5 82 +13 +13 1012.0 1004.4
12 16.09 З 2 н/о н/о +13.8 +11.1 84 +13 +13 1012.7 1005.1
15 16.09 СЗ 2 н/о н/о +13.7 +8.2 69 +13 +13 1014.0 1006.4
18 16.09 штиль 0 20 км ясно +6.4 +6.0 97 +5 +5 1016.1 1008.3 +15.0 0.0
21 16.09 штиль 0 н/о н/о +3.2 +3.2 100 +2 +2 1016.7 1008.8
00 17.09 штиль 0 н/о н/о +2.9 +2.9 100 +2 +2 1016.8 1008.9
03 17.09 штиль 0 н/о н/о +2.0 +2.0 100 +1 +1 1017.0 1009.0 +1.5
06 17.09 Ю 1 2000 м дымка 10/10 180 м
[St]
+6.2 +6.2 100 +5 +5 1017.4 1009.6 +1.5
09 17.09 ЮЗ 4 н/о н/о +14.3 +8.7 69 +13 +13 1016.2 1008.6
12 17.09 ЮЗ 4 н/о н/о +15.0 +6.5 57 +14 +14 1014.7 1007.1
15 17.09 Ю 2 н/о н/о +11.2 +10.4 95 +10 +10 1012.3 1004.6 0.9
18 17.09 ЮЗ 4 20 км в посл. час ливневой дождь 9/9 960 м
[Cb calv]
+12.0 +11.2 95 +10 +10 1009.7 1002.1 +16.0 5
21 17.09 ЮЗ 3 н/о н/о +12.5 +11.6 94 +11 +11 1008.8 1001.2
00 18.09 ЮЗ 3 н/о н/о +12.6 +11.7 94 +11 +11 1009.0 1001.4
03 18.09 З 3 н/о н/о +11.8 +10.9 94 +10 +10 1010.4 1002.8 +11.1 6
06 18.09 З 4 20 км 8/8 600 м
[Cb calv]
+12.1 +9.8 86 +10 +10 1013.1 1005.5 +11.5 3
09 18.09 З 3 н/о н/о +14.3 +8.1 66 +13 +13 1014.8 1007.2
12 18.09 З 4 н/о н/о +16.4 +8.6 60 +16 +16 1015.3 1007.7
15 18.09 ЮЗ 1 н/о н/о +15.0 +8.7 66 +16 +16 1015.4 1007.8
18 18.09 ЮЗ 2 20 км 9/0
[Ac und]
+11.8 +9.7 87 +11 +11 1015.7 1008.0 +16.7
21 18.09 ЮЗ 1 н/о н/о +11.8 +10.0 89 +12 +12 1015.2 1007.5
00 19.09 Ю 1 н/о н/о +11.7 +11.3 97 +11 +11 1013.7 1006.0
03 19.09 Ю 1 н/о н/о +11.0 +10.7 98 +11 +11 1012.8 1005.1 +10.9 0.5
06 19.09 ЮЗ 2 20 км 3/0
[Ac trans]
+14.5 +12.5 88 +14 +15 1012.8 1005.2 +10.4 0.6
09 19.09 н/о н/о +19.7 +13.2 66 1012.1 1004.7
12 19.09 ЮЗ 3 н/о н/о +23.2 +13.2 53 +26 +26 жарко 1011.2 1003.9
15 19.09 ЮЗ 1 н/о н/о +21.8 +13.0 57 +24 +24 комфорт 1010.6 1003.2
18 19.09 Ю 1 20 км ясно +15.6 +13.0 85 +16 +16 1010.4 1002.9 +24.2
21 19.09 ЮЗ 2 н/о н/о +17.3 +13.5 78 +18 +18 1010.5 1003.0
00 20.09 ЮЗ 2 н/о н/о +14.0 +13.0 94 +13 +13 1011.8 1004.2

 

Местоположение метеостанции Крестцы (Новгородская область, Россия): широта 58.27 долгота 32.52 высота над уровнем моря 63 м.

В архиве по умолчанию представлена погода в Крестцах за последнюю неделю. Архивные данные за месяц целиком и за предыдущие месяцы, начиная с января 2011 года, Вы можете получить, выбрав интересующий диапазон дат из раскрывающегося списка и нажав кнопку "Ввод!".


*Определитесь, кто Вы:
робот инопланетянин человек

Внимание! Время в таблицах - всемирное. Для получения местного времени необходимо прибавить поправку, которая в Крестцах равна 3 ч.

Смотрите также архив погоды в соседних городах и на ближайших метеорологических станциях:

Погода в Окуловке (Новгородская область, Россия) (48 км)
Погода в Валдае (Новгородская область, Россия) (53 км)
Погода в Демянске (Новгородская область, Россия) (69 км)
Погода в Старой Руссе (Новгородская область, Россия) (76 км)
Погода в Великом Новгороде (Новгородская область, Россия) (79 км)
Погода в Боровичах (Новгородская область, Россия) (82 км)
Погода в Бологом (Тверская область, Россия) (99 км)
Погода в Осташкове (Тверская область, Россия) (134 км)
Погода в Киришах (Ленинградская область, Россия) (134 км)
Погода в Любани (Ленинградская область, Россия) (141 км)

Пояснения к столбцам:

Ветер - указаны скорость ветра в м/с - средняя за 10 мин, порывы в срок и между сроками (в фигурных скобках) и направление, откуда дует ветер: С - северный, СВ - северо-восточный, В - восточный, ЮВ - юго-восточный, Ю - южный, ЮЗ - юго-западный, З - западный, СЗ - северо-западный.
Видимость - горизонтальная дальность видимости в метрах или километрах. При видимости от 1 до 10 км при отсутствии осадков обычно наблюдается дымка, при ухудшении видимости до 1 км и менее - туман. В сухую погоду видимость может ухудшаться дымом, пылью или мглою.
Явления - указаны атмосферные явления, наблюдавшиеся в срок или в последний час перед сроком; фигурными скобками обозначены явления, наблюдавшиеся между сроками (за 1-3 часа до срока); квадратными скобками обозначены град или гололедные отложения с указанием их диаметра в мм.
Облачность - указаны через наклонную черту общая и нижняя облачность в баллах и высота нижней границы облаков в метрах; квадратными скобками обозначены формы облаков: Ci - перистые, Cs - перисто-слоистые, Cc - перисто-кучевые, Ac - высококучевые, As - высокослоистые, Sc - слоисто-кучевые, Ns - слоисто-дождевые, Cu - кучевые, Cb - кучево-дождевые. Подробнее классификацию облаков см. в Атласе облаков (PDF).
T - Температура воздуха - температура, измеренная на высоте 2 м над землей.
Td - Температура точки росы - температура, при понижении до которой содержащийся в воздухе водяной пар достигнет насыщения.
f - Относительная влажность воздуха - влажноcть воздуха, измеренная на высоте 2 м над землей.
Te - Эффективная температура - температура, которую ощущает одетый по сезону человек в тени. Характеристика душности погоды. При расчете учитывается влияние влажности воздуха и скорости ветра на теплоощущения человека.
Tes - Эффективная температура на солнце - температура, которую ощущает человек, с поправкой на солнечный нагрев. Характеристика знойности погоды. Зависит от высоты солнца над горизонтом, облачности и скорости ветра. Ночью, в пасмурную погоду, а также при ветре 12 м/с и более поправка равна нулю.
P - Атмосферное давление - приведенное к уровню моря атмосферное давление.
Po - Атмосферное давление - измеренное на уровне метеостанции атмосферное давление.
Tmin - Минимальная температура - минимум температуры воздуха на высоте 2 м над землей.
Tmax - Максимальная температура - максимум температуры воздуха на высоте 2 м над землей.
R - Количество осадков - Количество выпавших осадков за период времени, мм. При наведении курсора мыши на число - период времени, за который выпало указанное количество осадков.
R24 - Количество осадков - Количество выпавших осадков за 24 часа, мм.
S - Снежный покров - Высота снежного покрова, см. При наведении курсора мыши на число - состояние снежного покрова и степень покрытия местности в баллах.